User: anonymous   Login
Location: Caltech
(34.1382°N, 118.1253°W)
Time: 07:52:53
(UTC-08:00)
Language:

CZ-2C R/B - Orbit

View from above orbital plane
View from above orbital plane
View from above satellite
View from above satellite

Ground track
Ground track

The orbit data is extracted from the following two-line orbital elements,

1 36089U 09061B   17058.13901833  .00000109  00000-0  38363-4 0  9998
2 36089  98.0515  64.8279 0082632  25.5304  16.1810 14.49642768385769
Epoch (UTC): 27 February 2017 03:20:11
Eccentricity: 0.0082632
inclination: 98.0515°
perigee height: 668 km
apogee height: 785 km
right ascension of ascending node: 64.8279°
argument of perigee: 25.5304°
revolutions per day: 14.49642768
mean anomaly at epoch: 16.1810°
orbit number at epoch: 38576

The dashed part of the orbit path shows where the satellite is in the earth's shadow,  

DLR